Location: Devore Heights
(34.2372°N, 117.4156°W)
Time: 04:08:52
(UTC+00:00)

deb Explorer IX - Pass Details

Date: 22 September 2024
Orbit: 504 x 828 km, 38.7° (Epoch: 05 October)

Event Time Altitude Azimuth Distance (km) Brightness Sun altitude
Rises 00:57:44 0° 252° (WSW) 3,183 ? 9.3°
Reaches altitude 10° 01:00:05 10° 253° (WSW) 2,308 ? 8.8°
Maximum altitude 01:05:37 82° 341° (NNW) 826 ? 7.7°
Drops below altitude 10° 01:11:32 10° 70° (ENE) 2,462 ? 6.5°
Sets 01:14:08 0° 71° (ENE) 3,410 ? 5.9°
